sat.trackr.live / text

‹ back to catalog

STARLINK-37121

NORAD 68383 · 2026-063D

PAYLOAD ACTIVE UNKNOWN

§ Identity

Operator
Country
US
Launch date
2026-03-26
Launch site
AFWTR
Launch vehicle
Mass (kg)
RCS (m²)

Purposes: comms

External: N2YO · Heavens-Above · Gunter

§ Orbital elements

Epoch: 2026-05-25T02:50:14.531136Z

Period
93.91 min
Inclination
97.2852°
Eccentricity
0.0000451
Mean motion
15.33445399 rev/d
Perigee alt
465.2 km
Apogee alt
465.9 km
Semi-major
6,843.7 km
B*
3.5089e-4
RAAN
287.6167°
Arg perigee
84.5023°
Mean anomaly
275.6271°
Rev number
960

§ Raw data

STARLINK-371211 68383U 26063D   26145.11822374  .00011270  00000+0  35089-3 0  99992 68383  97.2852 287.6167 0000451  84.5023 275.6271 15.33445399  9603

JSON: /api/v1/satellites/68383 · /tle

For live sub-satellite position, see the globe view (requires WebGL).

§ Visibility from observer

Set your observer location to see the next 7 days of passes ≥ 10°. The values pass through the URL so the page stays shareable.

No JS? Fill the form by hand. The geolocation button needs JavaScript.